Weather in Mayachnoye

Russia / Astrakhan Oblast     46°01′48″N   47°43′00″E
temp.,
°C
wind,
m/s
gust,
m/s
humid.,
%
clouds,
%
prec.,
mm/h
press.,
hPa
HPBL,
m
17 september, fri
fri1701:00+18nne6103991 0.0 1015587
04:00+15nne694393 0.0 1016402
07:00+13nne584799 0.0 1018462
10:00+15nne5642100 0.0 1018770
13:00+18n343399 0.0 10181102
16:00+20nnw333058 0.0 10161054
19:00+18ne234023 0.0 101734
22:00+15se34547 0.0 101882
18 september, sat
sat1801:00+15se235181 0.0 101867
04:00+15ese2351100 0.0 1017113
07:00+14e3343100 0.0 1018110
10:00+16e344188 0.0 1019236
13:00+20ese233562 0.0 1018958
16:00+21s12369 0.0 10181047
19:00+17sse58515 0.0 1018244
22:00+14se46615 0.0 1019143
19 september, sun
sun1901:00+14ese346138 0.0 101993
04:00+14e4762100 0.0 1019138
07:00+14e496377 0.0 1019207
10:00+20se81042100 0.0 1019917
13:00+22se9103567 0.0 1018979
16:00+22ese810366 0.0 1018809
19:00+18ese71253100 0.0 1018443
22:00+17e6136472 0.0 1017396
20 september, mon
mon2001:00+18ese61363100 0.0 1016384
04:00+18ese7136098 0.0 1015389
07:00+17e9165697 0.0 1017459
10:00+21ese91240100 0.0 1017563
13:00+23se8940100 0.0 1017741
16:00+22se7853100 0.0 1016672
19:00+19se58665 0.0 1016217
22:00+17ese358492 0.0 1017108
21 september, tue
tue2101:00+17ese368576 0.0 1016114
04:00+16e3585100 0.0 101588
07:00+17e3484100 0.0 101571
10:00+21se4563100 0.0 1015337
13:00+22sse5760100 0.0 1015447
16:00+23se5654100 0.0 1015485
19:00+19se586536 0.0 1015135
22:00+17ese46735 0.0 1016100